Flag for Canada Weather past 2 weeks in Trois-Rivieres, Quebec, Canada

Now
37 °F

Chilly.


Feels Like: 34 °F
Forecast: 39 / 51 °F
Wind: 3 mph from West

Location: Trois Rivieres

Current Time: Apr 26, 2015 at 7:44:21 AM

Latest Report: Apr 26, 2015 at 7:00 AM


Visibility: N/A

Pressure: 29.70 "Hg

Humidity: 90%

Dew point: 34 °F

Location of Trois-RivieresLocation

Historic Weather in Trois-Rivieres — Graph

°F

Trois-Rivieres temperature yesterday

Maximum temperature yesterday: 47 °F (at 1:00 PM)
Minimum temperature yesterday: 34 °F (at 5:00 AM)
Average temperature yesterday: 40 °F

Past Weeks' High & Low Weather Summary

 TemperatureHumidityPressure
High64 °F (Apr 17, 4:00 PM)100% (Apr 13, 6:00 AM)30.49 "Hg (Apr 13, 6:00 AM)
Low29 °F (Apr 16, 6:00 AM)19% (Apr 15, 7:00 PM)29.46 "Hg (Apr 23, 9:00 AM)
Average41 °F71%29.91 "Hg
* Reported Apr 11 6:00 AM — Apr 26 6:00 AM, Trois-Rivieres, Weather by CustomWeather, © 2015

Note: Actual official high and low records may vary slightly from our data, if they occured in-between our weather recording intervals... More about our weather records

Advertising

Trois-Rivieres weather history for previous 24 hours

 ConditionsComfort  
Time TempWeatherWind HumidityBarometerVisibility
6:00 AM
Sun, Apr 26
36 °FChilly.3 mph91%29.70 "HgN/A
5:00 AM36 °FChilly.3 mph92%29.70 "HgN/A
4:00 AM35 °FChilly.1 mph98%29.71 "HgN/A
3:00 AM40 °FChilly.5 mph84%29.71 "HgN/A
2:00 AM40 °FQuite cool.5 mph84%29.72 "HgN/A
1:00 AM41 °FQuite cool.7 mph82%29.72 "HgN/A
12:00 AM43 °FQuite cool.9 mph80%29.72 "HgN/A
11:00 PM
Sat, Apr 25
44 °FQuite cool.9 mph82%29.73 "HgN/A
10:00 PM45 °FQuite cool.10 mph77%29.73 "HgN/A
9:00 PM45 °FCool.7 mph79%29.72 "HgN/A
8:00 PM44 °FQuite cool.3 mph83%29.72 "HgN/A
7:00 PM45 °FQuite cool.3 mph80%29.72 "HgN/A
6:00 PM45 °FCool.1 mph79%29.72 "HgN/A
5:00 PM44 °FQuite cool.3 mph77%29.72 "HgN/A
4:00 PM43 °FQuite cool.12 mph77%29.71 "HgN/A
3:00 PM43 °FQuite cool.9 mph74%29.71 "HgN/A
2:00 PM42 °FQuite cool.13 mph76%29.72 "HgN/A
1:00 PM47 °FCool.6 mph56%29.73 "HgN/A
12:00 PM43 °FQuite cool.9 mph65%29.74 "HgN/A
11:00 AM41 °FQuite cool.8 mph67%29.74 "HgN/A
10:00 AM38 °FChilly.9 mph74%29.74 "HgN/A
9:00 AM39 °FChilly.10 mph71%29.74 "HgN/A
8:00 AM37 °FChilly.7 mph74%29.74 "HgN/A
7:00 AM36 °FChilly.9 mph78%29.74 "HgN/A
Weather by CustomWeather, © 2015

See weather overviewHow to use our weather pages